Location: La Mazère
(46.0247°N, 1.6850°E)
Time: 22:43:29
(UTC+00:00)

Daily predictions for brighter satellites

Satellite Brightness Start Highest point End
(mag) Time Altitude Azimuth Time Altitude Azimuth Time Altitude Azimuth
SL-14 R/B 3.6 17:50:18 10° N 17:54:09 45° ENE 17:58:00 10° SSE
Cosmos 1733 3.1 17:50:44 10° S 17:54:25 60° E 17:58:06 10° NNE
MINOTAUR 4 R/B 3.9 17:56:46 10° NNE 18:00:15 82° E 18:03:43 10° SSW
Cosmos 1766 4.0 17:57:22 10° SSE 18:00:50 31° E 18:04:21 10° NNE
Cosmos 540 Rocket 4.0 17:56:45 10° NNW 18:01:49 65° WSW 18:06:51 10° S
Meteor 2-10 4.2 17:56:46 10° S 18:02:16 58° E 18:07:38 10° NNE
ARGOS 4.4 17:57:44 10° S 18:02:53 48° W 18:08:06 10° NNW
Cosmos 1674 Rocket 3.8 17:59:06 10° N 18:03:24 49° ENE 18:07:42 10° SSE
YAOGAN 1 3.1 18:02:09 10° SE 18:06:07 37° ENE 18:10:08 10° N
Cosmos 968 Rocket 4.3 18:02:47 10° SSE 18:07:17 30° E 18:11:46 10° NE
Okean O Rocket 2.2 18:06:04 10° SE 18:10:00 34° ENE 18:13:59 10° N
SAR-Lupe-3 4.5 18:08:27 10° SSE 18:11:59 71° ENE 18:15:33 10° N
Lacrosse 4 Rocket 3.1 18:09:56 10° SE 18:12:02 14° ESE 18:13:56 11° ENE
SKYMED 2 3.7 18:10:16 10° NNE 18:14:39 85° WNW 18:18:58 10° SSW
Nadezhda 4 Rocket 4.2 18:08:40 10° SSE 18:14:42 49° E 18:20:45 10° NNE
Meteor 2-5 Rocket 4.4 18:10:39 10° N 18:15:35 32° ENE 18:20:29 10° SE
Cosmos 2285 Rocket 4.1 18:15:43 10° NNW 18:22:00 59° ENE 18:28:17 10° SE
PSLV R/B 3.7 18:18:33 10° SSE 18:22:14 84° WSW 18:25:55 10° NNW
Cosmos 1726 1.9 18:19:17 10° S 18:22:55 75° E 18:26:35 10° NNE
Cosmos 2322 Rocket 3.1 18:18:27 10° SSE 18:23:05 26° ESE 18:27:44 10° NE
USA 186 3.7 18:22:41 14° ENE 18:23:11 15° ENE 18:25:06 10° NNE
Cosmos 1470 3.7 18:24:30 10° SE 18:27:41 25° E 18:30:54 10° NNE
CZ-4B R/B 3.1 18:23:04 10° SSE 18:28:26 75° ENE 18:33:56 10° NNW
Cosmos 841 Rocket 4.1 18:23:32 10° NNW 18:28:37 59° WSW 18:33:39 10° S
Cosmos 1980 Rocket 2.8 18:23:23 10° SW 18:28:57 59° WNW 18:34:31 10° NNE
Cosmos 1378 Rocket 3.5 18:25:35 10° N 18:30:00 88° WSW 18:34:19 10° S
Cosmos 1975 Rocket 4.2 18:27:25 10° NNE 18:31:02 24° ENE 18:33:08 17° ESE
Timation 2 Rocket 4.2 18:25:18 10° NNW 18:31:43 73° WSW 18:37:49 10° SSE
ARGOS Delta rocket 3.9 18:26:41 10° NNE 18:31:58 77° E 18:36:54 10° S
Cosmos 2292 Rocket 3.9 18:32:47 10° SSE 18:37:46 46° E 18:41:37 10° NNE
Meteor 2-14 Rocket 4.5 18:33:30 10° S 18:39:34 86° W 18:45:40 10° N
Cosmos 1733 Rocket 4.4 18:37:42 10° SSW 18:41:56 44° WNW 18:46:13 10° N
USA 215 3.7 18:38:27 10° NE 18:44:52 60° NNW 18:51:16 10° WSW
COBE Rocket 4.0 18:41:49 10° S 18:46:40 75° W 18:51:25 10° NNW
Cosmos 1844 Rocket 3.2 18:44:46 10° NNW 18:50:06 39° NE 18:52:59 24° ESE
Cosmos 2278 4.0 18:46:40 10° SW 18:52:20 69° WNW 18:58:00 10° NNE
SL-16 R/B 2.2 18:47:32 10° S 18:53:06 62° ESE 18:58:43 10° NNE
Cosmos 1570 Rocket 3.9 18:50:17 10° NNW 18:55:34 83° ENE 19:00:49 10° SSE
Cosmos 1092 Rocket 4.0 18:50:01 10° S 18:56:10 58° E 19:02:18 10° NNE
Landsat 5 4.1 18:52:15 10° NNE 18:56:27 37° E 19:00:31 10° SSE
Resurs 01 Rocket 3.5 19:01:19 16° NE 19:01:19 16° NE 19:03:11 10° NNE
DMSP B5D1-3 4.4 18:56:44 10° NNE 19:01:53 88° ESE 19:07:00 10° SSW
Meteor 2-21 Rocket 4.5 18:56:13 10° S 19:02:17 83° W 19:08:22 10° N
SJ-6B 3.1 19:02:07 39° E 19:02:31 40° ENE 19:06:05 10° N
HJ-1C 4.3 19:00:48 10° S 19:03:49 45° W 19:06:49 10° NNW
Cosmos 2278 Rocket 4.3 19:02:48 10° NNE 19:04:26 11° NNE 19:05:41 10° NE
Cosmos 1437 Rocket 2.7 19:01:32 10° SSW 19:05:16 78° WNW 19:09:02 10° N
H-2A R/B 4.2 19:07:12 16° NE 19:07:12 16° NE 19:08:32 10° NNE
Cosmos 2263 Rocket 3.7 19:03:59 10° NW 19:09:10 37° WSW 19:14:21 10° S
Meteor 1-24 Rocket 3.5 19:05:45 10° N 19:11:05 77° ENE 19:16:12 11° SSE
Resurs 1-3 4.1 19:11:26 38° ENE 19:11:39 38° ENE 19:15:44 10° N
SL-4 R/B 3.0 19:11:32 10° WNW 19:15:52 48° SW 19:17:52 29° SSE
Feng Yun 1-1 Rocket 4.4 19:10:57 10° S 19:16:25 73° WSW 19:21:50 10° NNW
Cosmos 2084 Rocket 3.1 19:15:24 10° NW 19:19:16 82° NE 19:19:51 62° SE
USA 267 4.0 19:14:27 12° SSE 19:20:12 48° SW 19:26:32 10° WNW
Okean-O 2.6 19:20:29 50° ESE 19:21:18 59° ENE 19:25:40 10° N
Cosmos 1486 Rocket 4.1 19:17:26 10° S 19:22:35 53° ESE 19:27:45 10° NNE
CZ-4 R/B 2.4 19:18:37 10° S 19:22:38 47° W 19:26:42 10° NNW
ISS -0.9 19:21:08 10° WSW 19:22:43 13° SW 19:24:18 10° SSW
OBJECT-B 2.6 19:24:56 19° NNW 19:24:56 19° NNW 19:25:50 10° NNW
Cosmos 2208 Rocket 4.2 19:18:51 10° NNW 19:24:14 73° WSW 19:28:16 18° S
Cosmos 1844 3.7 19:19:14 10° NNW 19:24:44 59° ENE 19:26:12 44° ESE
IGS 5A 3.3 19:24:37 60° SE 19:25:11 71° ENE 19:29:19 10° N
DNEPR-1 R/B 3.8 19:22:04 10° SSW 19:26:39 69° ESE 19:30:36 19° NE
Meteor 1-22 Rocket 4.2 19:22:13 10° SSW 19:27:37 78° WNW 19:33:18 10° N
Cosmos 2333 Rocket 4.4 19:24:18 10° S 19:36:34 - NE 19:24:21 10° S
Cosmos 1300 Rocket 3.4 19:30:14 65° E 19:30:14 65° E 19:34:24 10° NNE
CSL-04 Debris 4.1 19:28:02 24° SSE 19:31:26 90° ENE 19:36:51 10° NNW
Cosmos 1627 Rocket 4.4 19:29:09 10° S 19:35:15 83° W 19:41:26 10° N
Cosmos 2360 Rocket 2.1 19:32:02 10° SSW 19:37:37 66° ESE 19:43:14 10° NNE
Cosmos 1782 Rocket 4.1 19:34:12 10° SSW 19:38:28 58° WNW 19:42:48 10° N
USA 81 4.1 19:34:26 10° N 19:39:44 78° W 19:43:22 21° S
Cosmos 1025 Rocket 3.3 19:39:29 10° NNW 19:43:46 66° W 19:44:51 47° SSW
Okean O Rocket 3.8 19:42:47 10° SSW 19:46:24 25° W 19:50:02 10° NW
Lacrosse 4 Rocket 1.7 19:46:03 10° SW 19:50:05 63° WNW 19:50:17 62° NW
Cosmos 1417 Rocket 4.4 19:44:41 10° N 19:50:45 60° ENE 19:51:04 59° E
Cosmos 2026 Rocket 4.3 19:45:52 10° SSW 19:51:52 64° WNW 19:57:54 10° N
USA 186 3.6 19:55:50 32° WNW 19:55:50 32° WNW 19:58:18 10° NNW
CSL-04 Rocket 4.0 19:55:05 33° S 19:57:24 62° WSW 20:02:47 10° NNW
ATLAS 2AS CENTAUR R/B 4.3 19:53:45 10° NNW 19:59:15 22° NNE 20:01:35 19° NE
MOS 1 4.4 20:01:33 59° NE 20:01:33 59° NE 20:06:38 10° N
Landsat 7 3.9 20:04:06 70° W 20:04:06 70° W 20:08:38 10° NNW
Cosmos 1553 Rocket 4.0 19:58:12 10° N 20:04:35 83° W 20:06:34 48° S
SPOT 1/Viking Rocket 4.1 20:07:53 49° NNE 20:07:53 49° NNE 20:11:45 10° N
Cosmos 2322 Rocket 2.9 20:01:13 10° SW 20:06:47 53° WNW 20:12:23 10° NNE
NOSS 3-4 (A) 4.1 20:04:57 10° NNW 20:11:35 50° NE 20:12:04 50° NE
NOSS 3-4 (C) 4.1 20:05:04 10° NNW 20:11:41 50° NE 20:12:10 49° NE
Ariane Rocket 4.3 20:16:26 30° NNE 20:16:26 30° NNE 20:19:10 10° N
NOSS 3-3 (A) 3.8 20:14:55 10° SW 20:20:03 75° WSW 20:20:03 75° WSW
NOSS 3-3 (C) 3.9 20:15:01 10° SW 20:19:58 71° WSW 20:19:58 71° WSW
Aureole 1 Rocket 4.0 20:17:12 10° SSW 20:24:42 83° WNW 20:30:37 10° NNE
USA 281 4.3 20:27:40 31° NNE 20:27:40 31° NNE 20:32:23 10° N
USA 215 4.4 20:24:15 24° NE 20:27:12 36° N 20:33:01 10° WNW
Cosmos 1844 Rocket 3.8 20:28:48 10° NW 20:33:57 36° WSW 20:34:40 35° WSW
Resurs 01 Rocket 3.6 20:38:53 26° NNW 20:38:53 26° NNW 20:40:52 10° NNW
SL-16 R/B 4.2 20:32:58 10° WSW 20:37:39 26° NW 20:42:20 10° N
Terra 4.4 20:42:43 12° N 20:42:43 12° N 20:43:03 10° N
Cosmos 1943 Rocket 4.4 20:37:28 10° N 20:38:59 14° NNE 20:38:59 14° NNE
Cosmos 2278 Rocket 3.7 20:44:37 10° NNW 20:47:32 28° N 20:47:32 28° N
Cosmos 2360 Rocket 4.2 21:17:35 10° WSW 21:22:06 24° NW 21:26:40 10° N
ATLAS 2AS CENTAUR R/B 4.1 21:45:00 10° NNW 21:49:00 33° NNW 21:49:00 33° NNW
